Location: Newark
(34.9500°N, 139.9667°E)
Time: 20:44:38
(UTC+00:00)

Vanguard 1 Rocket - Pass Details

Date: 16 December 2019
Orbit: 650 x 4226 km, 34.3° (Epoch: 24 January)

Event Time Altitude Azimuth Distance (km) Brightness Sun altitude
Rises 12:09:05 0° 264° (W) 8,052 12.7 -56.2°
Reaches altitude 10° 12:15:13 10° 265° (W) 6,640 12.1 -57.4°
Enters shadow 12:28:15 45° 266° (W) 3,379 10.2 -60.0°
Maximum altitude 12:34:40 88° 180° (S) 2,198 - -61.3°
Drops below altitude 10° 12:44:08 10° 91° (E) 3,518 - -63.1°
Sets 12:46:22 0° 91° (E) 4,202 - -63.6°
